Location: Dover
(48.8500°N, 53.9833°W)
Time: 01:59:48
(UTC+00:00)

SKYMED 2 - Pass Details

Date: 14 November 2025
Orbit: 621 x 623 km, 97.9° (Epoch: 13 December)

Event Time Altitude Azimuth Distance (km) Brightness Sun altitude
Exits shadow 21:41:07 - 17° (NNE) 2,220 6.1 -17.1°
Reaches altitude 10° 21:41:39 10° 18° (NNE) 2,004 5.9 -17.2°
Maximum altitude 21:45:59 69° 102° (ESE) 668 3.4 -17.9°
Drops below altitude 10° 21:50:18 10° 186° (S) 1,986 6.3 -18.6°
Sets 21:52:29 0° 189° (S) 2,888 7.2 -19.0°
